Wind_Speed
50 50 51 51 52 52 53 53 53 52 52 52 52 52 52 52 52 52 52 52 51 52 52 52 52 52 52 52 52 52 52 52 52 52 52 53 53 53
51 52 52 53 53 54 54 54 54 54 53 52 52 52 52 51 51 51 51 51 51 51 52 52 52 52 52 52 52 52 52 51 52 53 52 52 52 52
52 52 53 53 54 54 55 54 54 54 53 52 52 52 51 51 51 51 51 50 51 51 51 51 52 52 52 51 51 51 51 51 51 52 53 52 51 52
53 53 54 54 55 55 54 53 53 53 53 52 52 52 51 51 51 50 50 50 50 50 50 50 50 50 50 50 50 50 50 50 50 51 52 52 51 51
54 54 55 55 55 54 54 53 53 53 52 52 51 51 50 50 50 49 49 49 49 49 49 49 49 49 49 49 49 49 49 50 50 50 51 52 52 52
55 55 55 55 54 54 53 52 52 51 51 50 49 49 49 48 48 48 48 48 48 48 48 48 49 49 49 49 49 49 49 49 50 50 50 51 51 51
56 55 55 55 54 53 52 51 51 50 50 49 49 48 48 47 47 47 47 47 47 47 47 48 47 47 47 47 47 47 47 48 49 49 49 49 50 51
55 55 55 54 53 52 51 50 50 49 49 48 48 47 47 47 47 47 46 46 46 46 46 46 46 45 46 47 46 46 46 47 48 48 48 48 49 49
54 54 53 52 51 51 50 50 49 48 48 48 47 46 46 46 46 46 46 45 45 45 45 44 44 44 45 45 46 46 46 46 46 46 46 47 48 49
53 52 51 50 49 49 49 48 48 47 47 46 46 45 45 45 45 45 45 44 44 44 44 43 43 44 45 45 45 46 46 46 46 46 46 46 47 47
51 50 49 48 48 48 47 46 46 46 46 46 45 45 44 44 44 44 44 44 43 43 44 44 43 44 44 45 45 46 46 46 47 47 48 48 48 48
50 49 48 47 46 46 46 45 45 44 45 44 44 44 43 43 43 43 43 43 43 43 43 44 44 44 43 44 45 45 46 46 46 47 48 48 48 49
49 48 47 46 45 45 45 44 44 43 43 43 43 42 42 42 42 42 43 43 43 43 43 43 43 43 43 43 43 44 45 46 46 47 48 48 48 48
47 46 45 44 44 43 43 42 42 42 42 42 41 41 41 42 42 42 42 42 42 42 42 42 41 42 42 42 42 43 43 44 46 46 46 47 47 48
46 45 44 43 42 41 41 41 41 41 41 40 40 40 41 41 41 41 41 41 41 41 41 40 40 41 41 42 42 42 42 43 44 45 45 46 47 48
45 44 42 42 42 41 40 40 40 40 40 40 40 39 40 39 39 39 39 39 39 39 39 40 40 40 41 41 41 41 42 42 42 43 44 44 45 46
43 43 42 42 41 41 40 40 39 39 39 38 38 37 37 37 37 36 36 37 37 37 37 38 38 39 39 39 39 40 40 41 41 41 41 41 42 43
43 42 42 41 41 41 40 40 39 38 38 37 36 36 35 35 35 35 35 35 35 35 36 36 36 36 35 36 37 37 37 37 38 38 39 39 39 40
43 42 41 40 40 40 39 38 37 37 36 35 34 34 34 34 34 34 34 34 34 34 35 35 34 34 34 33 34 35 35 33 33 34 35 35 35 36
42 41 40 39 38 38 37 36 36 35 34 33 33 33 33 33 33 33 33 33 33 33 33 34 33 33 33 33 32 32 32 31 31 31 31 32 32 32
39 39 38 37 36 35 35 34 34 33 32 32 32 32 32 32 32 32 32 32 32 32 32 32 32 32 32 31 30 29 30 31 30 30 29 29 29 30
37 36 35 35 34 34 33 32 31 31 31 30 30 30 30 31 31 30 30 30 31 31 31 31 30 30 30 30 29 28 28 29 29 29 29 29 28 28
34 33 33 32 32 31 30 29 29 29 29 29 29 29 30 30 30 29 29 29 29 29 28 28 28 28 28 28 28 27 27 27 27 27 28 28 28 27
Wind_Direction
290 289 289 288 288 288 288 287 287 286 285 284 283 282 281 280 278 277 276 274 273 272 271 271 270 270 269 269 267 266 265 265 265 264 263 261 260 259
290 290 289 288 288 288 288 288 287 286 285 284 283 282 281 280 279 277 276 275 274 273 272 272 271 270 270 269 268 266 265 265 264 264 263 261 260 258
291 290 289 289 289 289 288 288 287 286 286 285 285 283 281 280 279 278 277 276 275 274 273 273 272 271 270 269 268 266 265 264 264 263 263 261 259 259
292 291 291 291 290 289 289 288 287 287 286 286 285 283 282 280 279 278 277 276 275 275 275 274 273 272 271 270 269 267 265 264 264 263 262 260 259 259
293 292 291 290 290 289 289 288 288 287 287 286 285 283 282 281 280 279 278 278 277 276 276 275 274 273 272 270 269 267 266 265 263 262 261 260 259 259
293 292 291 290 290 289 289 289 288 287 287 286 284 283 282 281 281 280 279 279 278 277 276 275 274 273 272 271 270 268 267 265 264 262 262 260 259 259
293 292 291 290 290 289 289 288 287 287 286 286 284 284 283 282 281 280 279 278 278 278 277 276 276 275 274 272 271 269 267 265 263 263 262 261 260 259
293 292 291 290 289 289 289 288 287 287 286 285 284 284 283 282 281 280 280 279 278 278 278 277 277 276 275 273 271 270 268 266 264 263 262 261 260 259
293 292 290 289 288 288 288 288 287 287 286 285 285 284 283 282 282 281 280 279 279 279 278 277 276 277 276 275 273 271 269 268 265 264 264 263 261 260
293 292 290 289 288 288 288 287 287 286 286 286 285 285 284 283 282 281 281 280 280 279 278 277 276 276 276 276 274 272 271 269 267 266 266 265 263 261
293 292 290 289 288 287 287 287 286 286 286 286 286 285 285 284 284 283 282 280 280 279 279 278 276 276 275 275 274 273 271 270 268 267 267 267 265 263
292 292 290 289 288 287 287 286 286 286 286 286 286 285 285 285 285 284 283 282 280 280 279 279 277 276 275 275 274 273 272 270 269 268 267 266 265 264
292 291 289 288 288 287 287 286 285 285 285 285 285 285 285 285 286 285 284 284 282 281 280 279 278 278 277 275 274 273 272 271 270 270 268 266 265 264
291 290 289 288 288 287 287 286 285 285 285 284 285 285 285 286 286 286 285 285 284 282 281 281 280 280 279 277 276 274 273 272 271 270 268 267 266 264
290 289 288 287 287 287 287 287 287 286 285 285 285 285 285 285 285 285 286 286 285 284 283 282 282 282 282 280 279 277 275 273 273 271 269 268 267 265
289 288 288 287 286 285 286 286 287 287 286 285 285 285 285 286 286 285 286 286 286 285 284 285 284 284 284 283 281 280 278 276 274 272 270 269 268 266
288 288 286 285 284 284 285 285 286 286 287 286 286 286 286 286 286 286 286 287 287 287 286 286 287 287 286 285 284 282 280 278 276 274 271 270 269 267
287 287 286 285 284 284 283 284 284 285 286 286 285 285 286 286 286 286 287 287 288 289 288 288 288 288 288 288 288 286 284 282 278 275 273 272 270 269
286 286 286 285 283 283 282 283 284 284 284 284 284 285 286 286 287 286 287 287 288 289 290 290 289 289 290 289 289 288 287 283 280 278 276 274 272 270
286 285 285 284 282 282 282 282 282 283 283 283 283 285 286 286 286 287 287 287 287 288 290 290 290 290 291 291 290 289 287 285 282 280 278 276 274 271
286 285 284 282 281 281 281 281 281 281 281 282 283 285 286 286 287 287 288 288 288 288 289 290 290 291 293 292 291 289 288 288 286 282 280 278 275 272
285 284 282 280 279 279 280 279 279 280 281 282 284 285 286 287 288 288 288 289 289 289 290 290 291 292 293 293 292 291 289 287 286 285 284 282 279 274
286 283 281 279 279 279 278 278 279 280 282 283 284 285 286 288 289 289 289 290 290 290 291 291 292 293 294 295 294 292 291 288 286 285 285 284 281 278
Height
5672 5669 5666 5662 5659 5656 5652 5649 5647 5645 5643 5640 5636 5634 5632 5630 5629 5627 5626 5625 5625 5624 5624 5624 5624 5625 5625 5626 5627 5628 5630 5631 5632 5634 5635 5638 5640 5643
5659 5655 5652 5648 5645 5641 5638 5635 5631 5629 5627 5625 5622 5619 5617 5615 5614 5612 5611 5610 5609 5609 5609 5609 5609 5609 5610 5611 5611 5613 5614 5615 5617 5618 5620 5622 5625 5627
5645 5641 5638 5634 5630 5627 5623 5620 5617 5614 5612 5610 5607 5604 5602 5600 5599 5597 5596 5595 5594 5594 5593 5593 5593 5594 5594 5595 5596 5597 5598 5600 5601 5602 5604 5606 5609 5612
5631 5627 5623 5619 5616 5612 5609 5605 5602 5599 5597 5595 5593 5589 5587 5585 5584 5582 5581 5580 5579 5579 5578 5578 5578 5578 5579 5579 5580 5581 5582 5584 5585 5587 5589 5591 5593 5595
5617 5613 5609 5605 5601 5597 5594 5591 5588 5585 5582 5580 5578 5575 5573 5571 5569 5568 5566 5565 5565 5564 5563 5563 5563 5563 5563 5564 5564 5565 5566 5568 5570 5571 5573 5575 5577 5580
5603 5599 5594 5590 5587 5583 5580 5576 5573 5570 5568 5565 5563 5561 5558 5556 5555 5554 5552 5551 5550 5549 5548 5547 5547 5547 5547 5548 5548 5549 5550 5552 5553 5555 5556 5559 5561 5564
5588 5584 5579 5575 5572 5568 5565 5562 5559 5556 5553 5551 5549 5547 5545 5543 5541 5540 5539 5537 5535 5535 5534 5532 5532 5532 5532 5532 5532 5533 5535 5536 5537 5539 5541 5543 5545 5548
5573 5569 5564 5560 5557 5553 5550 5547 5545 5542 5539 5537 5535 5533 5531 5529 5527 5526 5525 5524 5523 5521 5520 5518 5517 5517 5517 5517 5517 5518 5519 5520 5522 5523 5525 5527 5529 5531
5558 5554 5550 5546 5542 5539 5536 5533 5531 5528 5526 5523 5522 5519 5517 5515 5513 5512 5511 5509 5508 5507 5506 5506 5504 5503 5502 5502 5502 5503 5504 5505 5506 5507 5509 5511 5513 5515
5543 5538 5535 5531 5528 5525 5522 5519 5517 5514 5512 5510 5508 5506 5503 5501 5500 5498 5497 5496 5495 5493 5492 5493 5491 5490 5489 5487 5487 5488 5488 5489 5490 5492 5493 5495 5496 5498
5528 5524 5521 5517 5514 5510 5508 5506 5503 5501 5498 5496 5495 5493 5490 5488 5487 5485 5484 5483 5482 5480 5479 5479 5478 5477 5476 5474 5473 5472 5473 5474 5474 5475 5477 5478 5480 5482
5515 5511 5507 5503 5500 5496 5494 5492 5490 5488 5485 5483 5481 5480 5477 5475 5474 5472 5471 5469 5468 5467 5466 5465 5464 5463 5463 5462 5459 5458 5457 5458 5459 5459 5460 5462 5463 5465
5500 5497 5493 5489 5486 5483 5481 5478 5476 5474 5472 5470 5469 5467 5465 5463 5461 5459 5457 5456 5454 5453 5452 5451 5450 5448 5447 5448 5447 5444 5443 5442 5443 5443 5444 5445 5447 5448
5486 5482 5479 5476 5473 5470 5468 5465 5463 5461 5460 5458 5456 5455 5453 5451 5448 5446 5444 5443 5441 5440 5438 5436 5436 5434 5433 5432 5432 5431 5429 5427 5427 5427 5428 5428 5429 5431
5471 5468 5465 5463 5460 5458 5455 5453 5451 5449 5447 5445 5444 5442 5440 5438 5436 5434 5432 5430 5428 5426 5424 5423 5422 5420 5419 5417 5417 5415 5414 5413 5411 5411 5412 5412 5413 5414
5457 5455 5452 5450 5447 5445 5443 5441 5439 5437 5435 5433 5432 5430 5428 5426 5424 5423 5421 5418 5417 5414 5412 5410 5408 5407 5405 5403 5401 5400 5399 5398 5397 5396 5396 5396 5396 5396
5443 5441 5439 5437 5435 5433 5431 5429 5427 5425 5423 5422 5420 5418 5417 5415 5413 5411 5409 5407 5405 5403 5401 5398 5396 5394 5391 5389 5387 5385 5384 5382 5381 5380 5381 5381 5381 5380
5430 5428 5426 5424 5422 5420 5419 5417 5415 5413 5412 5410 5409 5407 5405 5404 5402 5400 5398 5396 5394 5392 5389 5387 5385 5383 5380 5377 5374 5372 5370 5369 5367 5366 5365 5366 5367 5365
5416 5414 5413 5411 5409 5408 5406 5405 5403 5402 5400 5399 5398 5396 5395 5393 5391 5389 5387 5385 5383 5381 5378 5376 5374 5371 5370 5368 5364 5360 5358 5356 5355 5354 5352 5352 5352 5352
5402 5401 5400 5398 5397 5395 5394 5393 5392 5391 5389 5388 5387 5386 5384 5383 5381 5379 5377 5375 5373 5371 5368 5365 5363 5360 5358 5356 5354 5351 5346 5344 5343 5343 5341 5340 5340 5339
5390 5388 5387 5385 5384 5384 5383 5382 5381 5380 5379 5378 5377 5375 5374 5372 5371 5368 5366 5364 5363 5361 5358 5356 5353 5350 5348 5345 5344 5341 5338 5334 5332 5331 5330 5330 5329 5329
5377 5375 5374 5373 5373 5372 5372 5371 5370 5370 5369 5368 5367 5365 5364 5362 5361 5359 5357 5355 5353 5351 5348 5346 5343 5340 5338 5335 5333 5331 5329 5326 5323 5321 5319 5318 5317 5317
5365 5364 5363 5362 5362 5361 5361 5361 5360 5360 5359 5358 5357 5356 5354 5353 5351 5349 5347 5345 5343 5341 5339 5337 5334 5332 5329 5326 5324 5321 5319 5317 5315 5313 5311 5308 5306 5306